EW1160 Weather Reports


time (UTC)temp
F
wind
direction
speed
knots
gust
knots
rain 1hr
in
rain 24hr
in
rain mn
in
humidity
%
barometer
mb
20260506091526 39 37 0.0 0.0 0.00 0.01 0.00 85 1006.2
20260506090024 40 12 0.0 0.0 0.00 0.01 0.00 83 1006.1
20260506084522 40 340 0.0 0.0 0.00 0.01 0.00 84 1006.1
20260506083021 41 29 0.0 0.0 0.00 0.01 0.00 86 1006.1
20260506081520 41 4 0.0 0.0 0.00 0.01 0.00 86 1006.1
20260506073111 41 335 0.0 0.0 0.00 0.01 0.00 87 1005.7
20260506071540 41 237 0.0 0.0 0.00 0.01 0.00 88 1005.7
20260506061604 44 354 0.0 0.0 0.00 0.01 0.00 86 1005.2
20260506044556 49 180 0.0 0.0 0.00 0.01 0.00 86 1005.3
20260506043052 49 179 0.0 0.0 0.00 0.01 0.00 85 1005.2
20260506041530 49 179 0.0 0.0 0.00 0.01 0.00 84 1005.5
20260506040029 50 179 0.0 0.0 0.00 0.01 0.00 84 1005.4
20260506034510 50 179 0.0 0.0 0.00 0.01 0.01 84 1005.4
20260506033009 50 179 0.0 0.0 0.00 0.01 0.01 84 1005.4
20260506031553 50 179 0.0 0.0 0.00 0.01 0.01 85 1005.5
20260506030051 50 179 0.0 0.0 0.00 0.01 0.01 86 1005.5
20260506024533 50 179 0.0 0.0 0.00 0.01 0.01 86 1005.6
20260506023031 50 179 0.0 0.0 0.00 0.01 0.01 86 1005.2
20260506021513 50 179 0.0 0.0 0.00 0.01 0.01 86 1005.2
20260506020023 50 179 0.0 0.0 0.00 0.01 0.01 86 1005.2
20260506014555 51 179 0.0 0.0 0.00 0.03 0.01 85 1005.2
20260506013054 51 179 0.0 0.0 0.00 0.03 0.01 85 1005.0
20260506011539 51 179 0.0 0.0 0.00 0.03 0.01 84 1005.0
20260506010035 51 179 0.0 0.0 0.00 0.03 0.01 84 1004.9
20260506004524 51 179 0.0 0.0 0.00 0.03 0.01 83 1004.7
20260506003019 52 179 0.0 0.0 0.00 0.03 0.01 82 1004.5
20260506001607 52 179 0.0 0.0 0.00 0.03 0.01 82 1004.5
20260506000124 52 179 0.0 0.0 0.00 0.03 0.01 81 1004.3
20260505234548 52 178 0.0 0.0 0.00 0.03 0.01 81 1004.2
20260505233052 53 178 0.0 0.0 0.00 0.03 0.01 81 1004.2
20260505231553 53 178 0.0 0.0 0.00 0.03 0.01 82 1004.3
20260505230050 53 177 0.0 0.0 0.00 0.03 0.01 82 1004.3
20260505224549 53 179 0.0 0.0 0.00 0.03 0.01 82 1004.4
20260505223045 52 164 0.0 0.0 0.00 0.03 0.01 81 1004.4
20260505221550 52 165 0.0 0.0 0.00 0.03 0.01 82 1004.4
20260505214534 51 188 0.0 0.0 0.00 0.03 0.01 82 1004.5
20260505213033 51 189 0.0 0.0 0.00 0.03 0.01 82 1004.4
20260505211555 51 184 0.0 0.0 0.00 0.03 0.01 81 1004.5
20260505210038 51 189 0.0 0.0 0.00 0.03 0.01 81 1004.5
20260505204537 51 183 0.0 0.0 0.00 0.03 0.01 81 1004.4
20260505203032 50 174 0.0 0.0 0.00 0.03 0.01 80 1004.6
20260505201537 50 169 0.0 0.0 0.00 0.03 0.01 79 1004.8
20260505200033 50 176 0.0 0.0 0.00 0.03 0.01 79 1004.9
20260505194531 50 172 0.0 0.0 0.00 0.03 0.01 78 1005.0
20260505193015 50 174 0.0 0.0 0.00 0.03 0.01 77 1005.1
20260505191518 50 156 0.0 0.0 0.00 0.03 0.01 76 1004.9
20260505190114 50 69 0.0 0.0 0.00 0.03 0.01 75 1004.6
20260505184600 49 69 0.0 0.0 0.00 0.03 0.01 75 1004.6
20260505183059 49 68 0.0 0.0 0.00 0.03 0.01 75 1004.6
20260505181641 49 68 0.0 0.0 0.00 0.03 0.01 78 1004.3
20260505180105 49 68 0.0 0.0 0.01 0.03 0.01 80 1004.4
20260505174557 48 62 0.0 0.0 0.01 0.03 0.01 79 1004.1
20260505173056 47 62 0.0 0.0 0.01 0.03 0.01 80 1004.3
20260505171603 46 58 0.0 0.0 0.01 0.03 0.01 78 1004.2
20260505170039 47 49 0.0 0.0 0.00 0.02 0.00 76 1004.2
20260505164538 47 41 0.0 0.0 0.00 0.02 0.00 73 1003.9
20260505163021 47 10 0.0 0.0 0.00 0.02 0.00 72 1004.1
20260505161520 47 14 0.0 0.0 0.00 0.02 0.00 70 1004.5
20260505153045 48 13 0.0 0.0 0.00 0.02 0.00 68 1003.6
20260505151541 46 24 0.0 0.0 0.00 0.02 0.00 75 1003.7
20260505124502 46 354 0.0 0.0 0.00 0.02 0.00 78 1001.8
20260505123051 46 21 0.0 0.0 0.00 0.02 0.00 77 1001.5
20260505121542 45 53 0.0 0.0 0.00 0.02 0.00 79 1000.8
20260505120023 45 9 0.0 0.0 0.00 0.02 0.00 80 1001.2
20260505114521 45 10 0.0 0.0 0.00 0.02 0.00 79 1000.3
20260505113003 44 14 0.0 0.0 0.00 0.02 0.00 83 1000.2
20260505111504 45 342 0.0 0.0 0.00 0.02 0.00 83 1000.2
20260505110104 44 24 0.0 0.0 0.00 0.02 0.00 84 999.6
20260505101520 44 11 0.0 0.0 0.00 0.02 0.00 89 999.1
20260505100100 44 10 0.0 0.0 0.00 0.02 0.00 89 998.9
20260505094557 44 29 0.0 0.0 0.00 0.02 0.00 88 998.3
20260505093035 48 23 0.0 0.0 0.00 0.02 0.00 81 998.0